This demonstration page uses our WeatherBlox Daily Observations layout. Learn more.

Left ArrowRight Arrow

Hourly Observations for December 22, 2018

Temp ( °F °C ) Dew Point ( °F °C ) Humidity (%) Winds ( mph kmh ) Pressure ( in mb ) Visibility ( mi km ) Precip ( " mm )
12:57 am 00:57 Clear 31 -0.6 27 -2.8 85 85 WNW 9 15 29.85 1011 10 16 0.00 0.00
1:57 am 01:57 Clear 30 -1.1 27 -2.8 88 88 WNW 9 15 29.85 1011 10 16 0.00 0.00
2:57 am 02:57 Clear 31 -0.6 27 -2.8 85 85 NW 8 13 29.87 1012 10 16 0.00 0.00
3:57 am 03:57 Clear 27 -2.8 25 -3.9 92 92 WNW 10 17 29.90 1013 10 16 0.00 0.00
4:57 am 04:57 Clear 28 -2.2 26 -3.3 92 92 NNW 8 13 29.89 1012 10 16 0.00 0.00
5:57 am 05:57 Clear 30 -1.1 28 -2.2 92 92 WNW 12 19 29.94 1014 10 16 0.00 0.00
6:57 am 06:57 Clear 31 -0.6 28 -2.2 89 89 NW 10 17 29.97 1015 10 16 0.00 0.00
7:57 am 07:57 Clear 30 -1.1 27 -2.8 88 88 NW 10 17 29.99 1016 10 16 0.00 0.00
8:57 am 08:57 Sunny 31 -0.6 27 -2.8 85 85 NW 12 19 30.00 1016 10 16 0.00 0.00
9:57 am 09:57 Sunny 34 1.1 27 -2.8 76 76 WNW 9 15 30.04 1017 10 16 0.00 0.00
10:57 am 10:57 Sunny 38 3.3 28 -2.2 68 68 NW 13 20 30.05 1018 10 16 0.00 0.00
11:57 am 11:57 Mostly Cloudy 39 3.9 26 -3.3 60 60 NW 20 31 30.07 1018 10 16 0.00 0.00
12:57 pm 12:57 Mostly Cloudy 39 3.9 25 -3.9 57 57 NNW 15 24 30.08 1019 10 16 0.00 0.00
1:57 pm 13:57 Sunny 42 5.6 24 -4.4 49 49 N 17 28 30.06 1018 10 16 0.00 0.00
2:57 pm 14:57 Sunny 41 5 24 -4.4 51 51 N 13 20 30.08 1019 10 16 0.00 0.00
3:57 pm 15:57 Partly Cloudy 40 4.4 24 -4.4 53 53 N 6 9 30.10 1019 10 16 0.00 0.00
4:57 pm 16:57 Cloudy 39 3.9 25 -3.9 57 57 NW 6 9 30.14 1021 10 16 0.00 0.00
5:57 pm 17:57 Mostly Cloudy 35 1.7 24 -4.4 64 64 WNW 6 9 30.17 1022 10 16 0.00 0.00
6:57 pm 18:57 Mostly Cloudy 35 1.7 24 -4.4 64 64 W 6 9 30.19 1022 10 16 0.00 0.00
7:57 pm 19:57 Mostly Cloudy 35 1.7 23 -5 61 61 W 7 11 30.20 1023 10 16 0.00 0.00
8:57 pm 20:57 Cloudy 33 0.6 25 -3.9 72 72 W 5 7 30.22 1023 10 16 0.00 0.00
9:57 pm 21:57 Mostly Clear 31 -0.6 24 -4.4 76 76 NW 9 15 30.24 1024 10 16 0.00 0.00
10:57 pm 22:57 Clear 28 -2.2 22 -5.6 78 78 NW 9 15 30.27 1025 10 16 0.00 0.00
11:57 pm 23:57 Clear 27 -2.8 21 -6.1 78 78 NW 5 7 30.29 1026 10 16 0.00 0.00

Powered by AerisWeather